Regional Weather Roundup
Issued by NWS

Home | Current Version | Previous Version | Graphics & Text | Print | Product List | Glossary Off
Versions: 1 2 3 4 5 6 7 8 9 10 11 12 13 14 15 16 17 18 19 20 21 22 23 24 25 26 27 28 29 30 31 32 33 34 35 36 37 38 39 40 41 42 43 44 45 46 47 48 49 50

000
ASUS43 KMKX 221459
RWRWI

WISCONSIN REGIONAL WEATHER ROUNDUP
NATIONAL WEATHER SERVICE MILWAUKEE/SULLIVAN WI
1000 AM CDT SUN APR 22 2018

NOTE: "FAIR" INDICATES FEW OR NO CLOUDS BELOW 12,000 FEET WITH NO
SIGNIFICANT WEATHER AND/OR OBSTRUCTIONS TO VISIBILITY.

WIZ001-002-006>008-014>016-023>028-221600-
NORTHWEST WISCONSIN

CITY           SKY/WX    TMP DP  RH WIND       PRES   REMARKS
SUPERIOR ARPT  FAIR      45  28  51 CALM      30.37F
ASHLAND        FAIR      52  19  27 W3        30.38F
HAYWARD        FAIR      53  23  31 CALM      30.38S
SIREN          FAIR      50  28  43 CALM      30.38S
CUMBERLAND     FAIR      39  21  48 CALM      30.38S
RICE LAKE      FAIR      43  28  56 CALM      30.40S
CHETEK         FAIR      45  27  50 CALM      30.39S
LADYSMITH      FAIR      50  32  49 CALM      30.40F
EAU CLAIRE     NOT AVBL
MENOMONIE      FAIR      49  32  52 CALM      30.39S
NEW RICHMOND   FAIR      48  29  48 CALM      30.38F
OSCEOLA        FAIR      51  32  49 CALM      30.40F
$$

WIZ003>005-009-010-017-018-221600-
NORTH CENTRAL WISCONSIN

CITY           SKY/WX    TMP DP  RH WIND       PRES   REMARKS
MANITOWISH WTR   N/A     45  20  37 CALM      30.38
ARBOR VITAE    FAIR      48  25  40 CALM      30.38R
WOODRUFF       FAIR      48  25  40 CALM      30.38R
RHINELANDER    FAIR      53  27  36 CALM      30.39R
EAGLE RIVER    FAIR      49  21  32 CALM      30.38R
LAND O LAKES   FAIR      53  13  20 CALM      30.39S
PHILLIPS       FAIR      52  30  43 CALM      30.38S
TOMAHAWK       FAIR      50  27  40 CALM      30.39S
MEDFORD        FAIR      45  32  61 CALM      30.38S
MERRILL          N/A     49  33  54 CALM      30.39S
$$

WIZ029-030-035-036-043>047-221600-
CENTRAL WISCONSIN

CITY           SKY/WX    TMP DP  RH WIND       PRES   REMARKS
WAUSAU         FAIR      51  32  48 CALM      30.37F
MOSINEE        MOSUNNY   50  30  46 CALM      30.39F
MARSHFIELD     FAIR      49  32  52 SE3       30.37F
STEVENS POINT  FAIR      48  28  47 SE3       30.40F
WAUPACA        FAIR      50  31  49 CALM      30.41S
WAUTOMA        FAIR      51  32  48 SE5       30.40F
WISC RAPIDS    FAIR      51  28  41 SE5       30.39F
CAMP DOUGLAS   NOT AVBL
$$

WIZ011>013-019>022-031-037>040-048>050-221600-
NORTHEAST WISCONSIN

CITY           SKY/WX    TMP DP  RH WIND       PRES   REMARKS
ANTIGO         FAIR      47  35  61 CALM      30.39S
SHAWANO        FAIR      48  31  51 CALM      30.40S
OCONTO         FAIR      47  30  52 CALM      30.41R
STURGEON BAY   FAIR      53  23  31 CALM      30.42S
GREEN BAY      FAIR      46  33  60 S3        30.41S
MANITOWOC      FAIR      50  21  32 E6        30.42F
APPLETON       MOSUNNY   52  25  35 CALM      30.39S
CLINTONVILLE   FAIR      46  28  49 CALM      30.41S
OSHKOSH        FAIR      49  28  44 SE6       30.40F
$$

WIZ032>034-041-042-053>061-221600-
SOUTHWEST WISCONSIN

CITY           SKY/WX    TMP DP  RH WIND       PRES   REMARKS
LA CROSSE      FAIR      51  35  54 CALM      30.38F
SPARTA         FAIR      53  33  47 CALM      30.39S
VIROQUA        FAIR      50  35  56 E8        30.37S
BOSCOBEL       FAIR      53  33  46 NE8       30.37F
PRAIRIE DU CHI FAIR      51  25  37 E5        30.36S
PLATTEVILLE    FAIR      52  27  37 E12       30.35F
$$

WIZ056-057-062-063-064-067-068-221600-
SOUTH CENTRAL WISCONSIN

CITY           SKY/WX    TMP DP  RH WIND       PRES   REMARKS
REEDSBURG      FAIR      52  31  44 NE5       30.38F
BARABOO/DELLS  FAIR      46  32  56 CALM      30.39S
LONE ROCK      NOT AVBL
MINERAL POINT  FAIR      54  21  28 E9        30.36S
MADISON        PTSUNNY   51  21  30 E8        30.38F
MIDDLETON      FAIR      52  20  28 E8        30.39S
WATERTOWN      FAIR      47  23  38 E6        30.40S
MONROE         FAIR      50  21  32 E10       30.36F
JANESVILLE     PTSUNNY   55  21  26 E12       30.37F
$$

WIZ051-052-058>065-066-070>072-221600-
SOUTHEAST WISCONSIN

CITY           SKY/WX    TMP DP  RH WIND       PRES   REMARKS
MILWAUKEE      PTSUNNY   48  23  37 NE8       30.41S
WAUKESHA       SUNNY     48  21  34 E9        30.41S
MILWAUKEE/TIMM SUNNY     48  10  21 E7        30.42S
RACINE         FAIR      48  25  40 NE9       30.41S
BURLINGTON     FAIR      52  23  32 E3        30.38F
KENOSHA        FAIR      51  26  37 NE9       30.39S
FOND DU LAC    FAIR      51  24  34 CALM      30.40F
SHEBOYGAN      FAIR      51  26  37 E5        30.41F
WEST BEND      FAIR      50  21  32 NE5       30.40F
JUNEAU         FAIR      49  22  35 SE3       30.41S
$$

LSZ147-162-221600-
LAKE SUPERIOR

STATION/POSITION TIME  TEMP    WIND        PRES    WAVE
                       AIR SEA DIR/SP/G            HT/PER
                 (UTC) (F)     (DEG/KT/KT) (MB)    (FT/S)
DEVILS ISLAND    1400   36     350/  2/  2 1029.9F
SAXON HARBOR     1440   35      CALM  /  2 1028.4F
$$

LMZ867-665-643>646-221600-
LAKE MICHIGAN

STATION/POSITION TIME  TEMP    WIND        PRES    WAVE
                       AIR SEA DIR/SP/G            HT/PER
                 (UTC) (F)     (DEG/KT/KT) (MB)    (FT/S)
NORTHPORT PIER   1440   40                 1029.8S
KEWAUNEE LAKESHO 1430   40     140/  2/  3 1029.3R
SHEBOYGAN LAKESH 1400   39      10/  6/  7 1030.6R
PORT WASHINGTON  1440   42      50/  6/  7 1030.8S
MILWAUKEE LAKESH 1430   41      40/  8/  8   N/A
KENOSHA   LAKESH 1400   42                 1029.1
$$

TC  - TEMPERATURE IN CELSIUS
VSB - VISIBILITY IN STATUTE MILES
WCI - WIND CHILL INDEX
HX  - HEAT INDEX




USA.gov is the U.S. government's official web portal to all federal, state and local government web resources and services.